Presure
182 190 188 192 225 227 228 222 160 166 165 187 188 151 137 180 146 135 144 128 189 181 148 195 201 191 157 187 176 188 196 193 187 181 199 182 187 198
223 224 226 227 229 230 171 185 173 142 177 163 172 176 143 176 183 144 160 143 190 145 141 167 163 200 201 198 201 201 199 196 197 202 199 195 193 183
227 227 241 240 225 161 168 242 137 170 176 155 152 144 152 155 155 143 151 154 164 157 184 171 177 162 180 204 207 199 209 212 201 192 152 194 158 140
224 222 186 145 170 155 145 132 93 149 169 167 143 168 163 152 154 171 145 158 156 170 153 213 165 191 182 176 178 169 181 173 128 168 201 143 188 175
215 243 238 163 150 142 154 147 159 157 156 161 160 124 131 142 145 147 183 151 138 144 164 188 199 172 151 188 186 186 185 185 157 193 190 133 182 190
237 195 179 168 153 129 98 152 161 158 162 179 170 125 136 140 141 140 188 151 140 144 138 224 188 144 191 198 197 188 188 200 178 150 202 153 196 148
189 136 155 157 150 138 158 141 155 229 184 169 169 276 196 147 139 145 150 140 146 143 172 216 217 142 210 206 214 193 220 189 186 183 200 180 163 192
163 160 159 140 145 153 148 132 168 272 267 169 323 315 320 336 145 135 260 257 137 141 126 227 217 214 128 211 137 208 139 133 161 215 187 165 167 186
172 172 170 155 151 245 236 141 281 215 123 158 269 360 363 304 181 190 252 119 135 138 140 225 234 167 145 165 201 184 214 205 197 197 164 171 216 195
169 254 199 185 134 238 260 133 158 201 285 327 330 346 319 215 220 215 132 196 144 140 137 138 193 133 147 142 207 161 145 144 158 132 175 162 143 134
179 266 264 278 223 313 185 309 180 276 361 307 319 322 328 319 304 300 213 257 238 143 157 233 246 193 136 150 204 212 212 147 138 207 144 211 133 197
274 279 288 300 298 176 166 308 303 317 332 342 308 306 306 181 163 228 267 253 213 193 232 236 229 239 232 224 213 150 162 192 219 137 140 218 190 216
284 273 295 300 237 126 290 303 287 292 320 330 347 335 298 295 238 153 294 240 232 234 221 139 190 160 179 226 189 124 168 191 171 156 215 222 221 215
282 287 287 248 271 124 198 293 310 271 305 328 318 255 324 299 223 146 178 176 132 229 137 241 272 213 225 222 221 216 210 217 213 212 220 214 214 216
281 277 280 269 297 268 297 296 294 300 281 145 304 303 272 278 324 276 290 293 138 228 204 221 262 243 218 229 216 217 214 216 223 218 216 213 220 230
276 280 273 284 264 281 286 305 282 279 286 291 293 285 292 291 277 296 278 236 272 250 227 225 229 265 243 236 229 228 226 217 216 221 225 225 238 224
285 272 273 261 271 220 272 277 293 267 277 191 268 264 275 278 270 279 248 248 233 260 260 269 243 242 260 252 246 232 226 220 225 230 234 237 158 231
276 256 292 302 261 269 274 269 273 274 265 270 270 261 265 266 264 259 232 226 233 261 242 236 248 244 250 237 251 252 249 246 237 239 225 233 256 230
269 255 260 265 291 267 277 266 264 259 264 255 261 259 260 254 260 252 251 251 231 228 240 250 249 258 246 245 245 209 237 249 250 255 273 273 264 235
263 262 252 282 292 286 272 264 254 253 264 247 262 253 253 250 242 241 249 246 244 239 236 232 234 227 224 236 242 227 233 229 232 232 221 229 237 245
253 267 246 261 235 285 257 266 260 249 256 249 245 251 253 249 244 248 240 240 247 244 245 243 237 241 235 232 235 239 241 240 241 246 241 248 252 260
249 253 250 248 241 289 284 240 255 251 262 250 241 258 250 253 251 246 249 244 248 245 247 245 245 245 248 250 254 253 250 250 253 272 282 281 271 250
260 262 258 251 252 246 272 283 261 257 260 261 252 240 239 245 240 243 237 240 249 243 250 246 242 242 248 250 258 267 287 280 272 252 253 258 270 178
Wind_Speed
86 86 84 86 94 94 93 88 59 62 61 77 77 49 58 70 59 56 58 46 71 69 59 80 85 78 60 79 71 81 86 84 81 76 85 78 82 88
97 97 96 96 96 95 67 72 69 58 70 60 63 67 57 67 75 60 60 59 73 58 56 66 66 82 83 84 88 88 89 86 87 88 86 88 88 78
98 97 96 97 95 63 65 88 52 67 72 54 53 56 57 58 60 57 60 61 66 63 79 73 76 68 72 80 84 84 89 88 84 84 62 88 66 56
98 95 79 58 67 61 58 56 39 57 67 66 56 65 67 59 60 70 58 63 61 71 60 84 68 84 81 80 80 76 83 80 51 74 89 58 90 79
95 98 97 67 60 59 66 61 67 63 62 64 65 50 54 59 61 61 74 62 50 55 68 85 87 80 63 88 86 90 90 92 70 90 93 53 88 90
100 83 75 70 63 57 41 62 68 61 63 71 70 54 59 59 62 61 73 66 50 56 51 88 76 59 88 88 90 86 92 93 82 67 96 70 92 65
80 61 66 68 64 53 69 52 60 84 66 71 63 86 69 66 62 65 72 52 64 59 70 83 88 59 89 92 91 93 88 94 91 94 101 84 77 99
73 71 71 65 60 67 58 53 75 87 85 69 78 79 79 84 65 56 93 91 51 58 45 86 86 90 49 91 57 90 59 55 74 101 95 78 83 93
81 79 78 72 61 86 82 53 84 80 53 66 71 66 68 80 69 73 88 45 56 58 57 85 92 67 56 65 84 75 93 99 98 101 78 81 103 102
79 94 79 78 54 80 84 51 69 76 79 69 64 63 71 68 75 79 56 69 74 65 54 56 75 51 69 62 86 75 69 70 78 58 89 81 71 65
78 93 91 90 81 79 63 66 55 73 51 68 62 62 64 71 80 89 74 89 80 71 71 86 92 72 58 76 95 97 99 75 62 103 73 108 65 104
91 89 84 77 75 58 71 67 57 54 51 53 63 63 65 64 67 73 91 87 75 80 82 87 88 95 94 100 96 76 83 95 109 64 68 115 102 114
80 82 70 67 66 64 64 57 62 60 43 47 53 55 65 69 65 68 86 77 79 82 86 60 82 73 80 96 88 56 79 93 88 76 114 118 117 109
73 68 65 63 65 67 57 54 47 48 40 41 46 58 55 61 64 66 63 66 57 81 61 90 93 90 98 97 102 104 103 110 108 110 119 106 109 114
66 63 59 59 51 61 49 51 49 44 46 61 29 31 60 61 52 67 67 69 63 81 82 89 86 100 95 103 100 104 106 109 115 111 110 108 121 133
59 56 56 53 59 54 47 38 45 44 44 41 35 39 36 42 60 53 60 76 62 77 87 91 91 92 104 106 107 115 115 107 108 117 121 118 131 114
57 55 56 57 55 55 51 46 36 47 38 56 45 46 40 42 54 50 70 74 83 74 80 76 88 87 84 95 110 114 115 109 118 120 123 123 86 119
55 57 55 54 55 53 50 48 44 43 44 42 45 46 44 46 48 55 75 81 82 66 81 84 83 85 86 94 95 101 105 112 116 119 108 118 128 115
55 58 56 54 58 54 52 50 50 49 47 49 47 45 49 53 55 61 65 68 85 87 82 79 84 83 89 93 95 93 100 104 108 112 108 108 108 109
57 56 57 55 53 57 57 55 57 54 53 57 56 57 57 60 64 65 66 73 77 80 83 87 88 89 90 96 96 96 99 99 100 103 100 104 107 113
61 55 59 54 58 58 57 61 61 56 60 60 60 61 63 63 64 65 70 72 74 76 79 85 89 92 93 96 101 104 102 103 102 105 107 110 118 120
63 61 58 57 56 58 64 55 59 62 66 67 62 67 67 68 69 70 73 75 78 82 86 88 90 93 96 99 100 101 101 102 107 112 104 99 100 99
62 61 61 59 58 56 53 69 69 64 69 72 74 68 68 71 72 75 73 77 80 83 86 87 88 92 93 98 104 106 90 92 91 91 96 98 103 69
Wind_Direction
249 249 250 251 251 252 254 254 258 259 252 253 257 255 263 265 263 274 268 284 269 270 282 272 273 278 284 282 285 286 286 288 290 293 294 293 294 293
246 247 249 250 251 253 249 250 252 255 257 258 263 263 258 264 261 266 272 274 267 280 287 282 282 274 276 278 279 281 284 286 288 289 291 289 290 295
246 248 252 252 251 248 250 256 252 254 256 260 254 254 261 264 266 270 271 274 277 277 271 279 279 284 280 278 279 281 280 281 286 286 297 287 304 303
247 248 244 238 248 248 246 248 260 255 256 258 255 261 262 264 268 272 274 276 278 274 283 266 283 271 276 282 281 285 282 287 301 292 284 302 290 294
245 252 252 244 244 245 250 251 254 255 256 257 258 268 270 269 273 275 266 276 278 281 279 270 266 280 289 274 276 277 279 281 290 285 286 302 290 292
250 246 243 244 245 248 254 252 256 257 259 261 260 266 267 267 270 274 267 277 282 283 284 266 272 290 271 272 273 277 278 278 286 296 283 295 289 305
242 244 245 247 247 243 254 249 259 260 257 260 254 258 258 264 268 271 274 280 283 284 280 266 264 289 270 270 272 275 279 280 282 286 282 292 298 289
244 245 247 241 247 252 255 244 259 261 259 262 262 256 253 249 269 273 252 256 284 284 276 263 265 267 289 271 295 275 297 298 285 277 290 296 296 293
244 245 246 249 251 262 262 254 263 260 254 262 258 257 253 249 261 260 253 263 283 280 283 262 263 281 288 279 276 283 274 275 279 283 297 293 285 290
245 253 251 253 240 264 267 245 256 260 262 260 259 256 250 256 255 253 278 257 277 282 283 286 272 288 292 296 276 287 299 300 299 299 291 299 306 302
246 255 258 262 257 267 252 266 251 263 271 257 255 253 250 246 246 243 255 251 258 280 280 263 262 273 292 295 271 273 275 299 290 283 304 285 295 290
254 257 261 263 263 249 257 265 267 268 270 259 253 250 248 260 259 255 246 252 260 268 266 267 268 266 261 263 272 294 293 282 279 299 304 283 293 289
255 256 259 259 255 242 263 264 264 265 264 266 264 249 248 248 257 266 248 255 257 260 262 283 270 279 279 267 277 285 284 282 291 290 283 285 288 291
254 255 256 253 257 244 247 264 267 255 262 269 257 253 250 251 258 269 264 264 275 257 282 260 256 264 265 266 267 271 276 276 279 282 281 289 291 294
250 252 253 254 251 257 251 254 255 258 254 255 241 239 248 248 255 249 252 252 275 257 262 262 258 260 265 265 268 272 275 278 278 282 287 291 292 290
249 249 250 251 253 252 257 258 242 250 256 253 241 243 247 246 248 250 253 250 254 252 255 258 261 256 259 262 266 268 271 279 285 284 284 289 288 293
247 246 247 248 247 247 252 252 253 247 244 254 246 246 249 245 245 244 247 247 254 254 259 260 261 264 260 261 261 268 272 280 279 282 282 284 296 293
244 242 240 239 247 244 242 245 247 245 244 252 245 244 246 246 247 249 254 256 255 256 260 262 263 265 265 269 270 270 272 274 277 280 287 287 287 292
242 243 244 243 237 241 235 238 244 246 243 246 245 245 244 241 243 246 249 252 257 261 263 261 264 267 268 271 274 280 278 279 280 283 286 288 289 291
239 242 243 242 240 235 231 237 244 244 241 251 248 248 247 248 251 252 254 256 260 263 265 268 269 272 274 273 275 278 279 281 283 285 289 290 292 295
239 240 243 245 247 240 245 234 240 249 243 249 255 256 255 255 257 258 261 263 265 265 264 265 269 271 274 277 279 280 282 283 285 289 290 291 291 293
239 241 241 244 246 242 241 255 249 250 244 248 258 252 253 253 255 259 260 263 265 266 267 270 272 275 277 279 282 282 285 287 287 289 290 292 292 293
236 239 242 245 246 249 251 242 248 250 247 246 249 257 261 259 263 262 266 269 268 270 269 272 274 276 280 281 282 284 286 288 291 293 293 294 295 296